Simultaneous Nadir Overpasses (SNOs) Predictions

Prediction of SNOs between METOP-A and TERRA Satellite Orbit:

Table of predicted SNOs for the next 14.0 days since TLE Epoch: 11/3/2011
Index Date Time (METOP-A) METOP-A Lat,Lon TERRA Lat,Lon Distance(km) Time Diff (sec)
1 11/05/2011 22:07:04 -81.22, 74.87 -81.23, 75.06 3.32 15
2 11/05/2011 22:57:44 81.22,-117.66 81.22,-117.53 2.24 58
3 11/08/2011 17:41:27 -81.22, 141.46 -81.23, 141.51 1.15 5
4 11/08/2011 18:32:07 81.22, -51.08 81.22, -51.10 1.06 68
5 11/11/2011 12:25:11 81.22, 40.11 81.22, 40.17 1.14 68
6 11/11/2011 13:15:52 -81.22,-152.44 -81.22,-152.29 2.67 6
7 11/14/2011 07:59:35 81.22, 106.49 81.21, 106.49 0.25 57
8 11/14/2011 08:50:15 -81.22, -85.67 -81.23, -85.58 1.85 17
9 11/17/2011 03:33:59
